Regional Weather Roundup
Issued by NWS

Home | Current Version | Previous Version | Graphics & Text | Print | Product List | Glossary On
Versions: 1 2 3 4 5 6 7 8 9 10 11 12 13 14 15 16 17 18 19 20 21 22 23 24 25 26 27 28 29 30 31 32 33 34 35 36 37 38 39 40 41 42 43 44 45 46 47 48 49 50
000
ASUS43 KMPX 182201
RWRMN
WEATHER ROUNDUP FOR MINNESOTA
NATIONAL WEATHER SERVICE TWIN CITIES/CHANHASSEN MN
400 PM CST SUN FEB 18 2018


NOTE: "FAIR" INDICATES FEW OR NO CLOUDS BELOW 12,000 FEET WITH NO
SIGNIFICANT WEATHER AND/OR OBSTRUCTIONS TO VISIBILITY. N/A MEANS
CURRENT SKY AND/OR WEATHER CONDITIONS ARE NOT AVAILABLE.

MNZ060>063-068>070-182300-
   Twin Cities Metro

CITY           SKY/WX    TMP DP  RH WIND       PRES   REMARKS
TWIN CITIES    CLOUDY    45  30  55 S15G21    29.62S
ST PAUL        FAIR      41  29  62 SE9       29.63F
CRYSTAL        FAIR      43  30  60 S18G28    29.60S
BLAINE         CLOUDY    45  32  61 S23       29.60S
LAKEVILLE      FAIR      39  30  70 S16G23    29.61S
EDEN PRAIRIE   FAIR      43  30  60 S12G22    29.59R
SOUTH ST PAUL  FAIR      42  29  61 S12G17    29.62S
LAKE ELMO      FAIR      41  30  65 S14G25    29.64S
$$
MNZ001>005-007-008-013>017-022>024-027-028-182300-
   Northwest Minnesota

CITY           SKY/WX    TMP DP  RH WIND       PRES   REMARKS
BEMIDJI        FLURRIES  17  12  81 NE14      29.74R WCI   3
HALLOCK        FAIR      14   5  67 N16       29.91R WCI  -2
WARROAD        FAIR      10   5  79 NE9       29.89R WCI  -2
THIEF RVR FALL CLOUDY    12   5  73 NE20      29.84R WCI  -6
CROOKSTON      FAIR      14   9  79 N17       29.86R WCI  -3
FOSSTON        FLURRIES  16   9  73 N14       29.78R WCI   1
DETROIT LAKES  FAIR      21  14  73 NE10      29.71R WCI  10
MOORHEAD       PTSUNNY   18  12  79 N20G25    29.77R WCI   1
PARK RAPIDS    CLOUDY    19  13  77 NE8       29.68R WCI   9
MAHNOMEN       CLOUDY    16  11  81 N18       29.74R WCI   0
$$
MNZ006-009>011-018-025>026-182300-
   North Central Minnesota

CITY           SKY/WX    TMP DP  RH WIND       PRES   REMARKS
BAUDETTE       CLOUDY    11   4  73 NE10      29.84R WCI  -3
FLAG ISLAND    FAIR      10   1  67 NE13G18   29.90S WCI  -5
INTL FALLS     LGT SNOW  11   7  84 NE9       29.83S FOG     WCI  -2
WASKISH        CLOUDY    14   9  79 NE10      29.81R WCI   1
BIG FORK       LGT SNOW  18  12  79 N8        29.75R WCI   7
LONGVILLE      CLOUDY    19  14  79 NE7       29.70R WCI  10
GRAND RAPIDS   FLURRIES  19  14  81 NE6       29.72S WCI  11
CRANE LAKE     LGT SNOW  12   9  85 N5        29.83F WCI   4
ORR            MIX PCPN  14   9  79 CALM      29.75R
COOK           LGT SNOW  16  12  86 NE5       29.75S WCI   9
WALKER         CLOUDY    18  12  79 NE9       29.71R WCI   6
$$
MNZ012-019>021-037-182300-
   Northeast Minnesota

CITY           SKY/WX    TMP DP  RH WIND       PRES   REMARKS
DULUTH         LGT SNOW  22  19  89 E12       29.67R VSB 3/4 WCI  10
ELY            LGT SNOW  16  10  79 NE6       29.75R WCI   7
HIBBING        LGT SNOW  18  15  88 NE8       29.71R FOG     WCI   8
EVELETH        LGT SNOW N/A N/A N/A NE8       29.72R
DULUTH HARBOR  SNOW      25  21  86 NE23      29.72S VSB 1/2 WCI  10
TWO HARBORS    LGT SNOW  27  21  80 NE9       29.68S VSB 3/4 WCI  17
G MARAIS ARPRT LGT SNOW  10   3  72 NE12      29.74S WCI  -4
$$
MNZ029>031-032-039>041-046>048-054>057-064-182300-
   West Central Minnesota

CITY           SKY/WX    TMP DP  RH WIND       PRES   REMARKS
FERGUS FALLS   PTSUNNY   23  16  74 NE10G17   29.69R WCI  12
WHEATON        CLOUDY    25  16  68 N18G24    29.70R WCI  11
MORRIS         CLOUDY    34  19  55 N16       29.62R WCI  23
ALEXANDRIA     CLOUDY    28  17  63 N15       29.62R WCI  16
ELBOW LAKE     FAIR      24  17  75 NE15      29.66R WCI  11
WADENA         FAIR      19  14  79 N13       29.66R WCI   7
GLENWOOD       FAIR      30  19  64 N16       29.60R WCI  19
APPLETON       CLOUDY    39  21  48 NW16      29.60R
BENSON         CLOUDY    41  21  45 N18       29.59R
ORTONVILLE     CLOUDY    32  19  59 N17G28    29.63R WCI  21
MADISON        CLOUDY    39  25  56 N18       29.60R
WILLMAR        FAIR      45  27  49 NW9       29.57R
$$
MNZ033>034-036-042>043-049>051-058-059-182300-
   Central Minnesota

CITY           SKY/WX    TMP DP  RH WIND       PRES   REMARKS
ST CLOUD       FAIR      40  30  67 S10       29.56S
SAUK CENTRE    FAIR      31  21  64 N15       29.58R WCI  21
PAYNESVILLE    FAIR      44  29  54 W7        29.55R
AITKIN         LGT SNOW  19  14  79 N12       29.65R WCI   7
PINE RIVER     CLOUDY    18  12  79 N9        29.72R WCI   6
BRAINERD       CLOUDY    24  14  65 NE13      29.65R HAZE    WCI  12
STAPLES        PTSUNNY   19  14  79 N14       29.65R WCI   6
LONG PRAIRIE   FAIR      28  18  64 NW10G18   29.61R WCI  19
LITTLE FALLS   CLOUDY    30  12  47 N9        29.62R WCI  22
LITCHFIELD     FAIR      45  30  57 S5        29.56R
BUFFALO        FAIR      41  31  68 S10       29.60R
MAPLE LAKE     FAIR      41  33  72 S7        29.58S
HUTCHINSON     FAIR      45  32  60 S15G23    29.58S
$$
MNZ037-044-045-052-053-182300-
   East Central Minnesota

CITY           SKY/WX    TMP DP  RH WIND       PRES   REMARKS
PRINCETON      FAIR      43  32  65 S12G20    29.59S
MORA           PTSUNNY   36  27  69 CALM      29.62S
CAMBRIDGE      FAIR      43  30  61 S8        29.61R
RUSH CITY      CLOUDY    39  30  68 S3        29.61S
MOOSE LAKE     CLOUDY    23  16  74 NE9       29.65R WCI  13
HINCKLEY       CLOUDY    34  27  75 N10       29.62R WCI  26
CLOQUET        SNOW      21  18  86 E7        29.67R VSB 1/2 WCI  13
MCGREGOR       CLOUDY    23  18  80 NE7       29.67R WCI  15
$$
MNZ071>073-080-081-089-090-097-098-182300-
   Southwest Minnesota

CITY           SKY/WX    TMP DP  RH WIND       PRES   REMARKS
MONTEVIDEO     CLOUDY    43  25  49 N13       29.56R
GRANITE FALLS  CLOUDY    48  29  48 W12       29.56R
CANBY          CLOUDY    37  25  60 W15G22    29.60R
MARSHALL       CLOUDY    47  30  51 W17       29.55R
REDWOOD FALLS  CLOUDY    44  31  60 S20       29.55R
OLIVIA         CLOUDY    46  28  49 W13       29.54R
PIPESTONE      CLOUDY    41  30  65 SW10      29.53R
WINDOM         MOSUNNY   41  23  48 S14       29.55F
WORTHINGTON    CLOUDY    40  31  70 S9        29.56R
JACKSON        CLOUDY    41  32  70 S5        29.58R
TRACY          CLOUDY    45  33  62 SW15      29.55R
SLAYTON        CLOUDY    41  33  71 SW10      29.56R
$$
MNZ065>067-074>077-082>085-091>093-182300-
   South Central Minnesota

CITY           SKY/WX    TMP DP  RH WIND       PRES   REMARKS
MANKATO        FAIR      41  30  65 S14G22    29.60S
NEW ULM        CLOUDY    39  30  70 S13       29.57F
ST JAMES       CLOUDY    39  32  75 S13       29.59S
FAIRMONT       MOSUNNY   40  31  70 S15       29.59S
GLENCOE        FAIR      41  34  75 S9        29.58S
FARIBAULT      FAIR      41  30  65 S10G17    29.63S
OWATONNA       FAIR      39  30  70 S17       29.62F
WASECA         FAIR      39  32  75 S15       29.63F
ALBERT LEA     FAIR      43  27  52 S16G24    29.62F
$$
MNZ078>079-086>088-094>096-182300-
   Southeast Minnesota

CITY           SKY/WX    TMP DP  RH WIND       PRES   REMARKS
ROCHESTER      FAIR      37  29  72 S22G35    29.67S
RED WING       FAIR      43  25  49 S22G28    29.66F
STANTON        FAIR      41  31  68 S17G24    29.62F
DODGE CENTER   FAIR      37  30  75 S24G32    29.64S
WINONA         FAIR      43  27  52 S10G17    29.71F
AUSTIN         FAIR      39  30  70 S18G28    29.65S
PRESTON        FAIR      37  28  69 S22G31    29.69R
$$
ABBREVIATIONS USED IN REMARKS
   TC - TEMPERATURES IN CELSIUS
  WCI - WIND CHILL INDEX
   HX - HEAT INDEX
  VSB - VISIBILITY
$$




USA.gov is the U.S. government's official web portal to all federal, state and local government web resources and services.